This is the latest recevied weather packets stored in our database for station/object F4GQK-13. If no packets are shown the sender has not sent any weather packets the latest 10 day(s).
| Time | Temp. | Humidity | Pressure | Rain* | Wind** | Luminosity | Snow |
|---|---|---|---|---|---|---|---|
| 1777881304 | 13.89° C | 98% | 1013.8 hPa | 0.51 mm | - | 21 W/m² | - |
| 1777881005 | 13.89° C | 98% | 1013.9 hPa | 0.51 mm | - | 25 W/m² | - |
| 1777880705 | 13.89° C | 98% | 1013.7 hPa | 0.51 mm | - | 43 W/m² | - |
| 1777880405 | 13.89° C | 98% | 1013.8 hPa | 0.51 mm | - | 50 W/m² | - |
| 1777880103 | 13.89° C | 98% | 1013.8 hPa | 0.25 mm | - | 37 W/m² | - |
| 1777879805 | 13.89° C | 98% | 1013.6 hPa | 0.25 mm | - | 36 W/m² | - |
| 1777879503 | 13.89° C | 98% | 1013.8 hPa | 0 mm | - | 33 W/m² | - |
| 1777879205 | 13.89° C | 98% | 1013.6 hPa | 0 mm | - | 31 W/m² | - |
| 1777878904 | 13.89° C | 98% | 1013.7 hPa | 0 mm | - | 20 W/m² | - |
| 1777878605 | 13.89° C | 98% | 1013.6 hPa | 0 mm | - | 20 W/m² | - |
| 1777878305 | 13.89° C | 98% | 1013.5 hPa | 0 mm | - | 35 W/m² | - |
| 1777878004 | 13.89° C | 98% | 1013.5 hPa | 0 mm | - | 33 W/m² | - |
| 1777877705 | 13.89° C | 98% | 1013.4 hPa | 0 mm | - | 33 W/m² | - |
| 1777877405 | 13.89° C | 98% | 1013.4 hPa | 0 mm | - | 29 W/m² | - |
| 1777877105 | 13.89° C | 98% | 1013.5 hPa | 0 mm | - | 28 W/m² | - |
| 1777876805 | 13.89° C | 98% | 1013.5 hPa | 0 mm | - | 34 W/m² | - |
| 1777876505 | 13.89° C | 98% | 1013.5 hPa | 0 mm | - | 43 W/m² | - |
| 1777876205 | 13.89° C | 98% | 1013.3 hPa | 0 mm | - | 54 W/m² | - |
| 1777875905 | 13.33° C | 98% | 1013.3 hPa | 0 mm | - | 55 W/m² | - |
| 1777875605 | 13.33° C | 98% | 1013.4 hPa | 0 mm | - | 44 W/m² | - |
| 1777875305 | 13.33° C | 98% | 1013.3 hPa | 0 mm | - | 37 W/m² | - |
| 1777875005 | 13.33° C | 98% | 1013.3 hPa | 0 mm | - | 43 W/m² | - |
| 1777874705 | 13.33° C | 98% | 1013.2 hPa | 0 mm | - | 40 W/m² | - |
| 1777874405 | 13.33° C | 98% | 1013.4 hPa | 0 mm | - | 37 W/m² | - |
| 1777874103 | 13.33° C | 98% | 1013.3 hPa | 0 mm | - | 34 W/m² | - |
* Rain latest hour (hover to see other rain measurements)
** Current wind speed in m/s (hover to see current wind gust speed)